Погода Александровский Завод

Погода Александровский Завод : погода сейчас, прогноз погоды и архив. Всё, что Вы хотите узнать о погоде Александровский Завод!

Хотите узнать прогноз погоды Александровский Завод? Тогда Вам сюда: Погода Александровский Завод

Поиск расширенной информации на нашем сайте:

Другие новости

Новости СМИ2

Главная страница сайта

Новости сайта

02.10.2013

Напоминаем, что на нашем новом сайте вы можете получить высокодетализированные прогнозы погоды по пунктам России, СНГ и мира (включающие важные для авиации метеовеличины, такие как направление и скорость ветра, видимость, явления погоды, количество и форма облачности, нижняя и верхняя граница облачности), а также ознакомиться с разнообразными материалами по авиационной метеорологии и подборкой полезных ссылок на эту тему.

Сайт Метеоцентр.Азия посвящён разработке технологий оптимизации авиаметеорологического обслуживания, включая проектирование и перспективное создание нескольких автоматизированных авиаметеорологических систем:
- система выпуска высокодетальных прогностических карт явлений погоды для нижнего воздушного пространства по России и ближнему зарубежью;
- система верификации прогнозов TAF (выпускаемых синоптиками официальных АМСГ РФ и ближнего зарубежья) и AUTOTAF (выпускаемых сайтом Метеоцентр.Азия) - выявление ошибок, онлайн-сопоставление с фактической погодой METAR, автоматическое внесение коррективов в прогнозы при резком отклонении фактической погоды от прогноза, подсчёт оправдываемости прогнозов по элементам и в целом;
- система обработки, анализа и отображения авиаметеорологической информации для применения провайдерами метеорологической информации.

Рекомендуем: Смотрите информацию обивка вагонкой цена на нашем сайте.

Погода Александровский Завод - сегодня

Время (UTC), дата Ветер
(°,м/с) 
Видим.   Явления Облачность Т
(°С)
Тd
(°С)
f(%) Тe
(°С)
Pmin
(гПа)
dP
(гПа)
Po
(мм)
O2
(г/м3)
Тmin Tmax R s Состояние
почвы
00 17.01.17 180 (Ю) 20000 м    ясно 
-32.8 -36.6 69 -34  1040.4  -0.6  697  321  -35.5      равномерный
сухой снег
100% 
03 17.01.17 тихо ()   20000 м    10/0 верхняя 
[Cs]
+26.7 -29.8 1 +27  1037.4  697  257           
06 17.01.17 тихо ()   20000 м    10/0 верхняя 
[Cs]
-19 -23.9 65 -19  1032.6  -1.2  696  303           
09 17.01.17 тихо ()   20000 м    10/0 верхняя 
[Cs]
-20.3 -23.9 73 -20  1033.6  0.4  696  305           
12 17.01.17 тихо ()   20000 м    10/0 верхняя 
[Cs]
-26 -28.7 78 -26  1037.1  0.9  697  312    -17.9       
15 17.01.17 220 (ЮЗ) 20000 м    10/0 верхняя 
[Cs]
-26.4 -29.3 76 -27  1038.1  0.7  697  313           
18 17.01.17 тихо ()   20000 м  в посл. час снег  10/0 средняя 
[As trans]
-27.1 -30.3 74 -27  1038.5  697  314           
21 17.01.17 тихо ()   20000 м    10/0 средняя 
[As trans]
-26 -28.9 77 -26  1038  0.1  697  312           
00 18.01.17 тихо ()   20000 м  {снег}  8/0 верхняя 
[Cs]
-26.3 -29.2 76 -26  1038.6  0.4  698  313  -27.9    0.5  равномерный
сухой снег
100% 
03 18.01.17 тихо ()   20000 м    10/0 средняя 
[As trans]
-22.6 -25.6 76 -23  1037.1  0.2  698  308           
06 18.01.17 030 (СВ) 20000 м  {снег}  10/0 верхняя 
[Cs]
-18.3 -22.6 69 -19  1033.9  -1.2  697  302           
09 18.01.17 тихо ()   20000 м    9/0 верхняя 
[Ci fib]
-20.9 -23.3 81 -21  1035.3  0.2  697  306           
12 18.01.17 180 (Ю) 20000 м    4/0 верхняя 
[Ci fib]
-24.7 -27.5 77 -25  1037.4  0.4  697  311    -17.5  0.3     
15 18.01.17 210 (ЮЗ) 20000 м  в посл. час снег  10/0 средняя 
[As trans]
-25.9 -28.8 76 -26  1038.1  0.1  697  312           
18 18.01.17 200 (Ю) 20000 м  {снег}  10/0 средняя 
[As trans]
-27.2 -30.2 76 -28  1038.5  -0.2  697  314           
21 18.01.17 230 (ЮЗ) 20000 м    ясно 
-32.2 -35.7 71 -33  1040.4  -0.3  697  320           
00 19.01.17 220 (ЮЗ) 20000 м    3/0 средняя 
[Ac lent]
-33.9 -37.6 69 -35  1041.3  697  323  -34.3    0.7  равномерный
сухой снег
100% 
03 19.01.17 тихо ()   20000 м    3/0 верхняя 
[Ci fib]
-25.2 -29.1 70 -25  1037.1  0.1  697  311           
06 19.01.17 тихо ()   20000 м    3/0 верхняя 
[Ci fib]
-17.7 -23.7 59 -18  1031.9  -1.7  696  301           
09 19.01.17 тихо ()   20000 м    4/0 верхняя 
[Ci fib]
-22.2 -26.1 71 -22  1034.4  0.5  696  307           
12 19.01.17 210 (ЮЗ) 20000 м    ясно 
-27.4 -30.3 76 -31  1036.8  696  313    -17.2       
15 19.01.17 180 (Ю) 20000 м    ясно 
-32.8 -36.3 71 -37  1038.5  -0.7  696  320           
18 19.01.17 200 (Ю) 20000 м    ясно 
-33.3 -36.9 70 -37  1037.6  -1  695  321           
21 19.01.17 200 (Ю) 20000 м    ясно 
-33.5 -37.2 69 -38  1035.9  -1.7  694  320           
00 20.01.17 220 (ЮЗ) 20000 м    10/0 средняя 
[As trans]
-30.5 -33.9 72 -31  1033.7  -0.6  693  316  -34      равномерный
сухой снег
100% 
Время (UTC), дата Ветер
(°,м/с) 
Видим.   Явления Облачность Т
(°С)
Тd
(°С)
f(%) Тe
(°С)
Pmin
(гПа)
dP
(гПа)
Po
(мм)
O2
(г/м3)
Тmin Tmax R s Состояние
почвы

Для получения пояснительной информации подведите курсор к названию столбца.

ПОГОДА Александровский Завод - архив

Всё, что Вы хотите узнать о погоде Александровский Завод - удобно и подробно!

Выберите нужную дату (начиная с 1 января 2015* года) и нажмите кнопку "Найти".
Будут отображены архивные сводки погоды по пункту Александровский Завод, начиная с указанной даты.


Отображать данные в формате CSV (для использования в таблицах Excel)


Внимание! Наш архив погоды предназначен исключительно для личного некоммерческого использования в познавательных целях. Если Вам необходимы официальные справки о состоянии погоды (для производственных, юридических, коммерческих и т.п. целей), обращайтесь в органы Росгидромета.

*Примечание: данная дата относится к архиву по метеостанциям СССР (Россия, СНГ, Балтия).
Архив по метеостанциям Зарубежной Европы и Азии (кроме Китая) хранится 10 дней, по другим регионам земного шара (Китай, Африка, Америка, Австралия, Океания) - 1 день.

Александровский Завод - район местоположения метеостанции


Название, широта, долгота, высота метеостанции:
Александровский Завод 50.9°ш. 117.9°д. 807 м над ур. моря [Российская Федерация]

Дополнительная информация

В oтличие oт бoльшинства пoгoдных сайтoв мы публикуем пoдрoбную метеoинфoрмацию в детальнoм прoфессиoнальнoм фoрмате.

Характеристики температуры и влажнoсти вoздуха измеряются на высoте 2 м в тени вдали oт зданий и деревьев.
Скoрoсть ветра измеряется на высoте 10 м (на урoвне рoста челoвека скoрoсть ветра ниже в 1.5-2 раза). Если метеoстанция нахoдится в гoрoде или в лесу, тo скoрoсть ветра занижена на 2-4 м/с пo сравнению с oткрытым местoм. Скoрoсть ветра над акватoриями крупных рек и oзёр, а также на вершинах хoлмoв на 2-5 м/с выше, чем в oбычных услoвиях.
Атмoсфернoе давление в разных тoчках местнoсти мoжет значительнo oтличаться oт давления на метеoстанции, в зависимoсти oт услoвий рельефа (при пoдъёме на 10 м давление пoнижается примернo на 1 мм рт.ст.).